Terminal Aerodrome Forecast
Issued by NWS

Home | Current Version | Previous Version | Text Only | Print | Product List | Glossary On
Versions: 1 2 3 4 5 6 7 8 9 10 11 12 13 14 15 16 17 18 19 20 21 22
000
FTUS42 KFFC 310500 RRA
TAFFTY
TAF
KFTY 310543Z 3106/0106 32002KT P6SM SKC
     FM311500 32006KT P6SM SCT120
     FM311900 31010G18KT P6SM BKN080
     FM010100 33016G26KT P6SM BKN025 PROB30 0101/0106 6SM -SHRA=

USA.gov is the U.S. government's official web portal to all federal, state and local government web resources and services.